Location: Maccacari
(45.1333°N, 11.1333°E)
Time: 20:01:40
(UTC+00:00)

Tiros 1 despin weight - Pass Details

Date: 21 January 2021
Orbit: 593 x 642 km, 48.2° (Epoch: 26 February)

Event Time Altitude Azimuth Distance (km) Brightness Sun altitude
Rises 19:29:51 0° 290° (WNW) 2,845 ? -35.3°
Reaches altitude 10° 19:32:09 10° 289° (WNW) 1,935 ? -35.7°
Enters shadow 19:33:09 17° 287° (WNW) 1,553 ? -35.9°
Maximum altitude 19:36:34 73° 206° (SSW) 624 - -36.5°
Drops below altitude 10° 19:40:57 10° 121° (ESE) 1,918 - -37.3°
Sets 19:43:13 0° 119° (ESE) 2,818 - -37.7°
